Lid_Strength_Index
2 1 2 1 1 1 1 1 1 1 1 1 1 1 1 1 0 1 1 1 1 1 1 1 1 1 1 1 1 1 2 2 4 3 2 1 1 1 -0 -0 -0 1 1
1 1 1 1 1 1 1 1 1 1 0 1 1 2 1 2 1 1 1 1 1 2 1 1 1 1 1 1 1 2 2 2 3 4 3 2 1 1 1 1 1 -0 0
2 2 2 2 1 1 1 1 1 1 1 1 1 2 2 1 1 1 1 1 1 1 1 1 1 1 2 2 2 2 2 1 2 3 3 2 2 1 1 1 1 1 -0
2 2 2 2 2 1 1 1 1 1 1 1 1 1 1 1 1 1 1 1 1 1 1 1 1 1 2 2 2 2 2 2 2 3 3 3 2 2 2 2 2 1 2
2 2 2 2 1 1 1 1 1 1 1 1 1 1 1 1 1 1 1 1 1 1 1 1 1 1 2 2 1 2 2 2 3 3 3 3 3 3 3 2 2 2 2
2 2 2 2 2 2 1 1 1 1 1 1 1 1 1 1 1 1 1 1 1 1 2 1 1 1 1 2 2 3 2 2 3 3 3 4 4 3 2 2 3 3 4
2 2 2 2 2 2 1 1 2 2 1 1 2 1 1 1 1 2 3 1 1 2 1 1 1 1 1 2 2 2 2 3 3 3 3 3 3 2 3 3 3 3 3
2 2 2 2 2 2 2 2 2 2 2 2 1 1 1 1 3 4 3 3 1 1 1 1 1 1 5 4 4 4 1 1 1 1 1 1 1 1 1 1 2 2 2
3 2 2 2 2 2 2 2 3 2 2 2 1 1 1 1 7 6 4 2 1 1 1 1 1 3 7 6 3 3 2 1 1 1 1 1 0 -0 0 2 2 3 4
3 2 2 2 2 2 2 2 2 1 2 1 2 1 2 1 8 7 5 2 2 2 1 7 7 7 7 5 3 3 3 3 2 2 2 2 2 2 0 0 1 3 4
2 2 2 2 2 2 2 2 2 2 2 2 2 1 1 2 7 9 8 3 3 3 3 6 7 7 6 6 6 5 4 3 3 4 4 3 2 3 2 1 0 1 3
2 2 2 2 1 1 2 2 2 2 2 2 2 2 2 5 9 10 10 8 6 5 5 5 6 7 6 6 6 5 5 4 4 3 3 3 3 3 2 2 1 0 0
2 2 2 2 2 2 2 2 2 2 2 3 3 3 3 6 8 10 10 9 7 5 5 6 6 6 7 5 4 5 4 3 2 2 3 2 2 1 1 2 1 1 0
3 2 2 2 2 2 3 5 4 3 3 3 4 4 3 5 7 8 8 8 7 7 5 5 4 4 4 5 3 3 2 1 1 2 2 1 1 1 1 1 2 2 3
3 3 2 2 2 3 7 8 5 3 4 3 5 5 4 3 5 7 7 6 6 6 5 4 4 3 4 4 4 4 4 2 2 2 2 2 2 2 2 2 2 3 4
3 3 3 3 2 3 5 6 10 11 11 7 5 6 2 7 9 10 11 10 9 10 6 5 3 4 4 4 4 4 4 2 1 2 2 2 2 3 3 3 3 3 3
3 3 3 3 2 3 3 5 5 8 12 12 11 10 8 6 10 10 12 13 11 8 6 5 4 4 3 4 3 4 4 3 3 2 2 2 2 2 2 3 3 3 4
2 4 3 2 2 2 3 3 4 5 6 7 11 10 11 11 12 14 14 12 8 8 6 6 5 4 3 3 3 3 3 3 3 3 3 3 3 3 3 3 3 4 3
3 2 2 2 2 2 2 3 3 4 5 6 9 10 11 12 13 13 12 6 6 7 7 7 4 4 3 2 3 3 3 3 3 3 3 3 3 3 3 3 3 5 4
2 3 3 2 2 2 2 3 3 3 3 5 7 8 10 11 10 9 8 6 5 5 4 3 2 3 4 2 2 3 2 3 3 3 3 2 2 3 3 3 3 4 4
2 2 2 2 2 3 2 3 3 3 3 3 5 6 9 8 8 7 7 6 5 5 3 2 3 3 3 3 4 4 2 2 3 2 2 2 2 3 3 3 3 3 3
2 2 2 2 2 2 2 2 3 3 3 3 2 5 11 6 6 6 6 5 4 3 3 2 2 2 2 2 3 4 3 3 2 2 2 2 2 3 3 3 2 2 2
2 2 2 2 2 3 3 2 3 3 3 3 2 6 7 5 5 5 4 4 4 3 2 1 2 2 2 2 2 1 3 4 3 1 2 2 3 2 3 3 3 3 3
2 2 2 2 2 3 3 3 3 5 3 3 5 5 5 5 5 4 4 3 2 2 0 2 2 1 3 4 5 7 7 8 5 4 4 3 2 3 2 2 2 2 2
2 2 2 3 3 3 3 3 3 3 3 3 3 4 4 4 4 4 3 2 1 1 1 2 4 6 6 6 7 8 14 16 9 10 4 3 3 2 2 2 2 2 3
2 2 2 2 3 3 3 3 3 2 3 3 2 3 3 3 2 2 1 2 3 5 6 7 8 8 9 10 11 15 18 17 12 15 7 4 2 4 3 3 3 4 4